This is the latest recevied weather packets stored in our database for station/object GBTWP-2. If no packets are shown the sender has not sent any weather packets the latest 10 day(s).
| Time | Temp. | Humidity | Pressure | Rain* | Wind** | Luminosity | Snow |
|---|---|---|---|---|---|---|---|
| 1777674303 | 7.22° C | 59% | 1017.7 hPa | 0 mm | - | 37 W/m² | - |
| 1777673702 | 7.22° C | 59% | 1017.6 hPa | 0 mm | - | 43 W/m² | - |
| 1777673102 | 7.22° C | 61% | 1017.4 hPa | 0 mm | - | 51 W/m² | - |
| 1777672802 | 7.78° C | 59% | 1017.6 hPa | 0 mm | - | 49 W/m² | - |
| 1777672502 | 7.78° C | 61% | 1017.4 hPa | 0 mm | - | 45 W/m² | - |
| 1777671302 | 7.22° C | 59% | 1017.2 hPa | 0 mm | - | 44 W/m² | - |
| 1777671002 | 7.78° C | 57% | 1017.4 hPa | 0 mm | - | 49 W/m² | - |
| 1777670702 | 7.78° C | 56% | 1017.4 hPa | 0 mm | - | 63 W/m² | - |
| 1777670402 | 7.78° C | 56% | 1017 hPa | 0 mm | - | 55 W/m² | - |
| 1777670102 | 7.78° C | 58% | 1017.1 hPa | 0 mm | - | 51 W/m² | - |
| 1777668902 | 7.78° C | 59% | 1016.8 hPa | 0 mm | - | 75 W/m² | - |
| 1777668602 | 7.78° C | 59% | 1017 hPa | 0 mm | - | 92 W/m² | - |
| 1777668002 | 7.78° C | 59% | 1017 hPa | 0 mm | - | 64 W/m² | - |
| 1777667702 | 7.78° C | 59% | 1017.1 hPa | 0 mm | - | 61 W/m² | - |
| 1777667102 | 7.78° C | 58% | 1017 hPa | 0 mm | - | 71 W/m² | - |
| 1777666802 | 7.78° C | 57% | 1017 hPa | 0 mm | - | 73 W/m² | - |
| 1777666202 | 8.33° C | 54% | 1017 hPa | 0 mm | - | 37 W/m² | - |
| 1777665001 | 8.89° C | 56% | 1016.6 hPa | 0 mm | - | 89 W/m² | - |
| 1777664702 | 8.89° C | 52% | 1016.7 hPa | 0 mm | - | 153 W/m² | - |
| 1777664402 | 8.89° C | 54% | 1016.8 hPa | 0 mm | - | 143 W/m² | - |
| 1777664102 | 8.89° C | 53% | 1016.8 hPa | 0 mm | - | 136 W/m² | - |
| 1777663502 | 9.44° C | 52% | 1016.7 hPa | 0 mm | - | 129 W/m² | - |
| 1777662602 | 8.33° C | 56% | 1016.7 hPa | 0 mm | - | 143 W/m² | - |
| 1777662302 | 7.78° C | 55% | 1016.7 hPa | 0 mm | - | 108 W/m² | - |
| 1777662002 | 8.33° C | 56% | 1016.6 hPa | 0 mm | - | 69 W/m² | - |
* Rain latest hour (hover to see other rain measurements)
** Current wind speed in m/s (hover to see current wind gust speed)